www.pogodaiklimat.ru

Погода и климат >> Архив погоды >> Норвегия >> Utsira Fyr


ПОГОДА в Utsira Fyr

  • Прогноз погоды в Utsira Fyr
  • Монитор погоды в Utsira Fyr
  • Климат города

АРХИВ ПОГОДЫ в Utsira Fyr

Время (UTC), дата Ветер
(напр.,м/с)
 
Видим.   Явления Облачность Т
(С)
Тd
(С)
f
(%)
Тe
(С)
Тes
(С)
Комфортность P
(гПа)
Po
(гПа)
Тmin
(С)
Tmax
(С)
R
(мм)
R24
(мм)
S
(см)
04 19.05 С 6
{8}
н/о н/о +6.9 +6.3 96 +2 +2 1012.6 1005.7
05 19.05 СВ 7
{9}
н/о н/о +7.2 +6.6 96 +2 +2 1012.4 1005.5
06 19.05 С 7
{10}
800 м туман ?/? +7.5 +6.9 96 +3 +3 1012.4 1005.5 +6.1 +9.7
07 19.05 СВ 6
{10}
н/о н/о +7.9 +7.3 96 +4 +4 1012.4 1005.5
08 19.05 СВ 6
{9}
н/о н/о +8.6 +8.0 96 +4 +4 1012.3 1005.4
09 19.05 СВ 7
{9}
25 км {туман} 9/9 300 м
[St]
+8.9 +8.3 96 +5 +5 1011.9 1005.1
10 19.05 С 6
{9}
н/о н/о +10.2 +9.4 95 +7 +7 1012.2 1005.4
11 19.05 С 6
{8}
н/о н/о +9.4 +8.3 93 +6 +6 1012.2 1005.4
12 19.05 С 7
{10}
700 м туман ?/? +8.9 +7.8 93 +5 +5 1011.7 1004.9
13 19.05 С 8
{10}
н/о н/о +8.9 +7.8 93 +4 +4 1011.8 1005.0
14 19.05
{9}
н/о н/о +9.4 +8.2 92 1011.9 1005.1
15 19.05 С 6
{8}
500 м туман ?/? +9.2 +8.1 93 +5 +5 1011.8 1005.0
16 19.05 С 5
{7}
н/о н/о +9.8 +8.7 93 +6 +6 1011.6 1004.8
17 19.05
{6}
н/о н/о +10.1 +8.5 90 1011.7 1004.9
18 19.05 С 4
{10}
20 км {туман} 8/0
[Ac und Cc]
+9.9 +8.2 89 +7 +8 1011.6 1004.8 +7.5 +10.3
19 19.05 С 3
{5}
н/о н/о +10.0 +8.3 89 +8 +8 1012.0 1005.2
20 19.05 С 2
{4}
н/о н/о +9.7 +8.0 89 +8 +8 1012.0 1005.2
21 19.05 В 3
{4}
20 км 9/0
[Ac trans Cs]
+10.0 +8.3 89 +8 +8 1012.3 1005.5
22 19.05 ЮВ 2
{3}
н/о н/о +10.9 +8.5 85 +10 +10 1012.5 1005.7
23 19.05 Ю 1
{2}
н/о н/о +10.8 +8.2 84 +10 +10 1012.4 1005.6
00 20.05 Ю 1
{5}
н/о н/о +10.2 +8.3 88 +10 +10 1012.6 1005.8
01 20.05 СВ 1
{2}
н/о н/о +11.0 +9.1 88 +11 +11 1012.3 1005.5
02 20.05 СВ 3
{4}
н/о н/о +9.6 +7.7 88 +7 +7 1011.9 1005.1
03 20.05 СВ 5
{5}
н/о н/о +9.4 +8.0 91 +6 +6 1011.6 1004.8
04 20.05 СВ 5
{6}
н/о н/о +10.6 +9.0 90 +8 +8 1011.3 1004.5
05 20.05 В 5
{7}
н/о н/о +12.7 +9.5 81 +10 +10 1011.1 1004.4
06 20.05 В 4
{7}
20 км 8/6 1000 м
[Sc Ac trans Ci fib]
+14.7 +9.7 72 +14 +14 1011.2 1004.5 +9.2 +14.7
07 20.05 В 4
{6}
н/о н/о +13.2 +9.8 80 +12 +12 1011.6 1004.9 0.2
08 20.05 Ю 5
{7}
н/о н/о +11.8 +9.0 83 +9 +9 1012.1 1005.3
09 20.05 ЮЗ 5
{6}
15 км {дождь} 10/8 600 м
[Sc As trans]
+11.5 +9.6 88 +9 +9 1012.3 1005.5
10 20.05 Ю 7
{9}
н/о н/о +10.8 +9.2 90 +7 +7 1013.1 1006.3
11 20.05 Ю 8
{9}
н/о н/о +9.9 +8.5 91 +6 +6 1013.8 1007.0
12 20.05 Ю 8
{11}
7000 м слабый дождь 10/0
[As op]
+9.5 +8.4 93 +5 +6 1015.0 1008.1 0.2
13 20.05 Ю 8
{10}
н/о н/о +9.4 +8.5 94 +5 +5 1015.9 1009.0 0.3
14 20.05 Ю 8
{11}
н/о н/о +9.3 +8.5 95 +5 +5 1016.8 1009.9 0.6
15 20.05 Ю 7
{11}
4000 м дождь 10/8 100 м
[Frnb As op]
+9.3 +8.5 95 +5 +5 1017.7 1010.8 1
16 20.05 Ю 8
{10}
н/о н/о +9.7 +8.9 95 +5 +5 1018.4 1011.5
17 20.05 Ю 7
{9}
н/о н/о +9.9 +8.8 93 +6 +6 1019.1 1012.2
18 20.05 Ю 7
{11}
25 км {дождь} 1/1 600 м
[St Ac trans Cs]
+9.6 +8.4 92 +6 +6 1019.7 1012.8 +9.3 +14.8
19 20.05 Ю 6
{9}
н/о н/о +9.3 +7.9 91 +5 +5 1020.3 1013.4
20 20.05 Ю 6
{9}
н/о н/о +8.8 +6.9 88 +5 +5 1020.8 1013.9
21 20.05 ЮВ 6
{8}
30 км 1/1 300 м
[St Cs]
+8.7 +7.2 90 +5 +5 1021.0 1014.1
22 20.05 ЮВ 6
{8}
н/о н/о +8.6 +7.2 91 +5 +5 1021.1 1014.2
23 20.05 Ю 6
{8}
н/о н/о +8.7 +7.5 92 +5 +5 1021.4 1014.5
00 21.05 Ю 6
{9}
н/о н/о +8.7 +7.5 92 +5 +5 1021.6 1014.7
01 21.05 Ю 7
{9}
н/о н/о +8.7 +7.6 93 +4 +4 1021.5 1014.6
02 21.05 Ю 6
{9}
н/о н/о +8.9 +7.8 93 +5 +5 1021.4 1014.5
03 21.05 Ю 6
{9}
н/о н/о +8.9 +7.7 92 +5 +5 1021.2 1014.3
04 21.05 ЮВ 7
{9}
н/о н/о +8.6 +7.4 92 +4 +4 1020.7 1013.8
05 21.05 ЮВ 7
{10}
н/о н/о +8.8 +7.4 91 +5 +5 1020.8 1013.9
06 21.05 Ю 7
{10}
30 км 3/0
[]
+9.2 +7.2 87 +5 +6 1020.7 1013.8 +8.6 +9.7
07 21.05 Ю 8
{12}
н/о н/о +8.9 +6.9 87 +4 +4 1021.0 1014.1
08 21.05 Ю 8
{11}
н/о н/о +9.3 +7.6 89 +5 +5 1021.3 1014.4
09 21.05 Ю 8
{11}
15 км 10/10 300 м
[St]
+9.0 +7.5 90 +5 +5 1021.3 1014.4 0.1
10 21.05 Ю 7
{10}
н/о н/о +9.1 +8.0 93 +5 +5 1021.3 1014.4 0.6
11 21.05 Ю 6
{9}
н/о н/о +9.4 +8.5 94 +6 +6 1021.6 1014.7 2
12 21.05 ЮЗ 6
{12}
10 км в посл. час дождь 10/10 200 м
[St]
+10.0 +9.1 94 +6 +6 1022.0 1015.1
13 21.05 ЮЗ 7
{9}
н/о н/о +10.0 +8.8 92 +6 +6 1022.2 1015.3
14 21.05 ЮЗ 6
{9}
н/о н/о +10.3 +8.6 89 +7 +7 1022.5 1015.6
15 21.05 ЮЗ 4
{9}
15 км 9/9 300 м
[Sc]
+10.2 +8.5 89 +7 +8 1022.7 1015.8
16 21.05 ЮЗ 5
{7}
н/о н/о +10.8 +9.1 89 +8 +8 1022.5 1015.6
17 21.05 Ю 5
{7}
н/о н/о +10.5 +8.8 89 +7 +7 1022.4 1015.5
18 21.05 Ю 5
{9}
17 км 9/9 300 м
[St]
+9.9 +8.3 90 +7 +7 1022.3 1015.4 +8.9 +11.0
19 21.05 ЮЗ 4
{6}
н/о н/о +9.6 +8.2 91 +7 +7 1022.4 1015.5
20 21.05 ЮЗ 3
{6}
н/о н/о +9.2 +8.0 92 +7 +7 1022.5 1015.6
21 21.05 ЮЗ 4
{5}
15 км 9/8 200 м
[St Cs]
+9.1 +8.0 93 +6 +6 1022.7 1015.8
22 21.05 ЮЗ 5
{6}
н/о н/о +9.1 +8.2 94 +6 +6 1022.6 1015.7
23 21.05 ЮЗ 2
{6}
н/о н/о +9.0 +8.1 94 +7 +7 1022.6 1015.7
00 22.05 ЮЗ 3
{6}
н/о н/о +8.9 +8.0 94 +6 +6 1022.6 1015.7
01 22.05 Ю 3
{4}
н/о н/о +8.9 +8.0 94 +6 +6 1022.4 1015.5
02 22.05 Ю 3
{5}
н/о н/о +8.8 +7.7 93 +6 +6 1022.1 1015.2
03 22.05 Ю 5
{6}
н/о н/о +8.8 +7.6 92 +5 +5 1021.8 1014.9
04 22.05 Ю 5
{7}
н/о н/о +9.0 +7.9 93 +5 +5 1021.7 1014.8
05 22.05 Ю 4
{6}
н/о н/о +9.0 +8.1 94 +6 +6 1021.6 1014.7
06 22.05 Ю 5
{7}
15 км 10/8 600 м
[Sc As trans]
+9.0 +7.9 93 +5 +6 1021.7 1014.8 +8.7 +9.9
07 22.05 Ю 5
{7}
н/о н/о +9.2 +8.1 93 +6 +6 1021.6 1014.7
08 22.05 Ю 5
{6}
н/о н/о +9.4 +8.2 92 +6 +6 1021.6 1014.7
09 22.05 Ю 5
{7}
20 км 10/8 600 м
[Sc As trans]
+10.0 +8.6 91 +7 +7 1021.4 1014.5
10 22.05 Ю 6
{8}
н/о н/о +10.3 +8.4 88 +7 +7 1021.4 1014.5
11 22.05 Ю 6
{8}
н/о н/о +9.9 +8.0 88 +6 +6 1021.1 1014.2
12 22.05 Ю 5
{8}
20 км 10/8 600 м
[Sc As trans]
+10.0 +8.3 89 +7 +7 1020.9 1014.0
13 22.05 ЮЗ 5
{7}
н/о н/о +10.0 +8.3 89 +7 +7 1020.8 1013.9
14 22.05 ЮЗ 5
{6}
н/о н/о +9.9 +8.3 90 +7 +7 1020.3 1013.4
15 22.05 Ю 3
{7}
15 км {дождь} 10/9 300 м
[Sc As trans]
+10.1 +8.5 90 +8 +8 1019.7 1012.8
16 22.05 Ю 5
{6}
н/о н/о +9.7 +8.1 90 +6 +6 1019.0 1012.1
17 22.05 Ю 4
{6}
н/о н/о +9.7 +8.1 90 +7 +7 1018.6 1011.7
18 22.05 Ю 3
{7}
17 км {дождь} 6/0
[Ac trans Cs]
+9.8 +8.2 90 +7 +8 1018.1 1011.2 +9.0 +10.5
19 22.05 Ю 4
{5}
н/о н/о +9.3 +7.9 91 +6 +6 1017.4 1010.5
20 22.05 Ю 4
{5}
н/о н/о +9.1 +7.9 92 +6 +6 1017.1 1010.2
21 22.05 Ю 4
{5}
10 км 9/0
[Ac trans Cs]
+9.1 +8.0 93 +6 +6 1017.1 1010.2
22 22.05 ЮВ 3
{4}
н/о н/о +8.9 +7.8 93 +6 +6 1016.6 1009.7
23 22.05 ЮВ 4
{4}
н/о н/о +8.9 +8.0 94 +6 +6 1016.1 1009.2
00 23.05 ЮВ 4
{5}
н/о н/о +8.9 +8.0 94 +6 +6 1015.6 1008.7
01 23.05 ЮВ 4
{5}
н/о н/о +8.9 +8.0 94 +6 +6 1015.2 1008.3
02 23.05 ЮВ 5
{7}
н/о н/о +8.8 +8.1 95 +5 +5 1014.6 1007.7
03 23.05 ЮВ 5
{7}
н/о н/о +8.6 +7.9 95 +5 +5 1014.2 1007.3
04 23.05 Ю 6
{7}
н/о н/о +8.9 +8.1 95 +5 +5 1014.0 1007.1
05 23.05 ЮВ 6
{8}
н/о н/о +9.3 +8.5 95 +5 +5 1013.3 1006.5
06 23.05 ЮВ 6
{8}
15 км 9/1 1500 м
[Sc As trans]
+9.7 +8.9 95 +6 +6 1013.1 1006.3 +8.6 +9.8
07 23.05 ЮВ 7
{9}
н/о н/о +10.6 +9.4 92 +7 +7 1012.5 1005.7
08 23.05 ЮВ 7
{9}
н/о н/о +11.8 +8.1 78 +9 +9 1012.8 1006.0
09 23.05 ЮВ 5
{9}
25 км 8/0
[Ac trans Cs]
+13.5 +7.7 68 +12 +16 1012.9 1006.2
10 23.05 Ю 5
{7}
н/о н/о +12.5 +7.8 73 +10 +10 1013.4 1006.6
11 23.05 ЮЗ 6
{10}
н/о н/о +12.2 +8.5 78 +10 +10 1013.6 1006.8
12 23.05 ЮЗ 8
{10}
н/о н/о +11.2 +8.6 84 +8 +8 1013.7 1006.9
13 23.05 ЮЗ 8
{11}
н/о н/о +10.9 +8.7 86 +7 +7 1013.7 1006.9
14 23.05 ЮЗ 9
{13}
н/о н/о +10.1 +8.0 87 +6 +6 1013.7 1006.9
15 23.05 ЮЗ 8
{11}
н/о н/о +9.8 +8.2 90 +6 +6 1014.0 1007.2
16 23.05 ЮЗ 9
{11}
н/о н/о +11.0 +8.9 87 +7 +7 1014.0 1007.2
17 23.05 З 7
{11}
н/о н/о +9.9 +8.5 91 +6 +6 1014.3 1007.5
18 23.05 З 5
{13}
н/о н/о +9.5 +8.4 93 +6 +6 1014.5 1007.7 +9.5 +13.5
19 23.05 З 5
{6}
н/о н/о +9.3 +8.4 94 +6 +6 1014.9 1008.0
20 23.05 З 6
{8}
н/о н/о +9.3 +8.5 95 +5 +5 1015.4 1008.5
21 23.05 З 8
{10}
н/о н/о +9.3 +8.4 94 +5 +5 1015.7 1008.8
22 23.05 СЗ 10
{13}
н/о н/о +9.4 +8.3 93 +5 +5 1016.1 1009.2
23 23.05 СЗ 9
{12}
н/о н/о +9.2 +8.0 92 +4 +4 1016.5 1009.6
00 24.05 СЗ 8
{13}
н/о н/о +9.1 +7.9 92 +5 +5 1016.8 1009.9
01 24.05 СЗ 6
{11}
н/о н/о +9.1 +8.0 93 +5 +5 1017.2 1010.3
02 24.05 З 7
{9}
н/о н/о +8.8 +7.7 93 +4 +4 1017.6 1010.7
03 24.05 СЗ 5
{9}
н/о н/о +9.0 +7.9 93 +5 +5 1017.6 1010.7
04 24.05 З 4
{6}
н/о н/о +8.7 +7.6 93 +5 +5 1017.8 1010.9
05 24.05 СЗ 5
{6}
н/о н/о +9.2 +8.0 92 +6 +6 1018.3 1011.4
06 24.05 СЗ 4
{11}
н/о н/о +10.1 +8.7 91 +7 +7 1018.7 1011.8 +8.7 +10.2
07 24.05 СЗ 4
{5}
н/о н/о +10.6 +8.7 88 +8 +8 1018.9 1012.0
08 24.05 СЗ 5
{7}
н/о н/о +10.9 +8.3 84 +8 +8 1019.5 1012.7
09 24.05 СЗ 4
{8}
15 км 9/9 300 м
[Sc]
+10.6 +7.7 82 +8 +9 1019.9 1013.0
10 24.05
{7}
н/о н/о +10.7 +7.8 82 1020.2 1013.3
11 24.05 С 4
{6}
н/о н/о +11.3 +7.8 79 +9 +9 1020.3 1013.5
12 24.05 СЗ 5
{8}
30 км 8/4 300 м
[Sc Ci sp]
+11.6 +7.3 75 +9 +13 1020.5 1013.7
13 24.05 СЗ 4
{7}
н/о н/о +11.7 +7.2 74 +10 +10 1020.7 1013.9
14 24.05 СЗ 5
{6}
н/о н/о +11.7 +8.2 79 +9 +9 1021.1 1014.3
15 24.05 СЗ 4
{6}
30 км 8/1 600 м
[St Ac cuf Ci fib]
+11.5 +8.0 79 +9 +13 1021.0 1014.2
16 24.05 СЗ 5
{6}
н/о н/о +11.4 +7.9 79 +9 +9 1021.2 1014.4
17 24.05 СЗ 5
{7}
н/о н/о +10.7 +7.9 83 +8 +8 1021.3 1014.4
18 24.05 СЗ 5
{7}
20 км 8/5 300 м
[St Cc]
+10.5 +8.6 88 +7 +8 1021.4 1014.5 +10.1 +12.2
19 24.05 СЗ 4
{6}
н/о н/о +10.3 +8.4 88 +8 +8 1021.5 1014.6
20 24.05 СЗ 4
{7}
н/о н/о +9.8 +7.4 85 +7 +7 1021.6 1014.7
21 24.05 СЗ 3
{7}
30 км 8/5 600 м
[St Ac As Cc]
+9.7 +7.8 88 +7 +7 1021.7 1014.8
22 24.05 СЗ 3
{5}
н/о н/о +9.4 +7.5 88 +7 +7 1021.7 1014.8
23 24.05 СЗ 4
{6}
н/о н/о +9.6 +7.9 89 +7 +7 1022.0 1015.1
00 25.05 С 3
{7}
н/о н/о +9.5 +8.0 90 +7 +7 1021.8 1014.9
01 25.05 С 2
{4}
н/о н/о +9.5 +8.1 91 +8 +8 1021.8 1014.9
02 25.05 С 1
{2}
н/о н/о +9.4 +8.0 91 +9 +9 1021.7 1014.8
03 25.05 Ю 1
{2}
н/о н/о +9.5 +8.1 91 +9 +9 1021.3 1014.4
04 25.05 Ю 2
{3}
н/о н/о +9.5 +8.3 92 +8 +8 1021.3 1014.4
05 25.05 ЮЗ 4
{5}
н/о н/о +9.5 +8.4 93 +7 +7 1021.5 1014.6
06 25.05 Ю 5
{6}
10 км дымка {морось} 10/10 300 м
[St]
+9.7 +8.8 94 +6 +6 1021.3 1014.4 +9.4
07 25.05 ЮЗ 5
{6}
н/о н/о +9.8 +9.0 95 +6 +6 1021.6 1014.7
08 25.05 ЮЗ 5
{6}
н/о н/о +10.2 +9.4 95 +7 +7 1022.1 1015.2 0.1
09 25.05 СЗ 6
{8}
500 м туман {морось} ?/? +10.1 +9.3 95 +7 +7 1022.4 1015.5 0.1
10 25.05 З 5
{7}
н/о н/о +10.2 +9.4 95 +7 +7 1022.4 1015.5
11 25.05 СЗ 6
{7}
н/о н/о +10.2 +9.6 96 +7 +7 1022.6 1015.7
12 25.05 СЗ 4
{8}
500 м туман {морось} ?/? +10.5 +9.9 96 +8 +8 1022.7 1015.8
13 25.05 З 5
{6}
н/о н/о +10.3 +9.7 96 +7 +7 1022.9 1016.0
14 25.05 СЗ 5
{6}
н/о н/о +10.3 +9.7 96 +7 +7 1022.9 1016.0
15 25.05 СЗ 6
{7}
5000 м дымка {туман} 10/10 300 м
[St]
+10.3 +9.7 96 +7 +7 1022.9 1016.0
16 25.05 СЗ 5
{8}
н/о н/о +10.3 +9.5 95 +7 +7 1023.0 1016.1 0.1
17 25.05 СЗ 6
{7}
н/о н/о +10.1 +9.3 95 +7 +7 1023.2 1016.3
18 25.05 СЗ 5
{8}
4000 м дымка {туман} 10/10 300 м
[St]
+10.1 +9.3 95 +7 +7 1023.1 1016.2 +9.6 +10.5 0.1
19 25.05 СЗ 4
{6}
н/о н/о +10.0 +9.2 95 +7 +7 1023.1 1016.2
20 25.05 СЗ 4
{6}
н/о н/о +9.9 +9.1 95 +7 +7 1023.4 1016.5 0.1
21 25.05 СЗ 5
{6}
4000 м дымка {морось} 10/10 300 м
[St]
+9.8 +9.0 95 +6 +6 1023.5 1016.6
22 25.05 СЗ 4
{6}
н/о н/о +9.8 +9.2 96 +7 +7 1023.6 1016.7 0.1
23 25.05 З 3
{5}
н/о н/о +9.8 +9.2 96 +7 +7 1023.9 1017.0
00 26.05 СЗ 2
{6}
н/о н/о +9.8 +9.2 96 +8 +8 1023.8 1016.9 0.1
01 26.05 СЗ 3
{4}
н/о н/о +9.9 +9.3 96 +8 +8 1023.8 1016.9
02 26.05 СЗ 2
{3}
н/о н/о +9.9 +9.3 96 +8 +8 1023.8 1016.9
03 26.05 З 2
{3}
н/о н/о +9.9 +9.3 96 +8 +8 1023.9 1017.0
04 26.05 СЗ 2
{3}
н/о н/о +10.0 +9.4 96 +8 +8 1023.9 1017.0

 

Местоположение метеостанции Utsira Fyr (Норвегия): широта 59.31 долгота 4.88 высота над уровнем моря 55 м.

В архиве по умолчанию представлена погода в Utsira Fyr за последнюю неделю. Архивные данные за месяц целиком и за предыдущие месяцы, начиная с января 2011 года, Вы можете получить, выбрав интересующий диапазон дат из раскрывающегося списка и нажав кнопку "Ввод!".

Внимание! Время в таблицах - всемирное. Для получения местного времени необходимо прибавить поправку, которая в Utsira Fyr равна 1 ч.

Смотрите также архив погоды в соседних городах и на ближайших метеорологических станциях:

Погода в Rovaer (Норвегия) (18 км)
Погода в Haugesund Lufthavn (Норвегия) (19 км)
Погода в Kvitsoy (Норвегия) (41 км)
Погода в Vats I Vindafjord (Норвегия) (52 км)
Погода в Stavanger (Норвегия) (62 км)
Погода в Stavanger Lufthavn (Норвегия) (65 км)
Погода в Fister-Sigmundstad (Норвегия) (67 км)
Погода в Slatteroy Fyr (Норвегия) (68 км)
Погода в Saerheim (Норвегия) (75 км)
Погода в Liarvatn (Норвегия) (76 км)

Пояснения к столбцам:

Ветер - указаны скорость ветра в м/с - средняя за 10 мин, порывы в срок и между сроками (в фигурных скобках) и направление, откуда дует ветер: С - северный, СВ - северо-восточный, В - восточный, ЮВ - юго-восточный, Ю - южный, ЮЗ - юго-западный, З - западный, СЗ - северо-западный.
Видимость - горизонтальная дальность видимости в метрах или километрах. При видимости от 1 до 10 км при отсутствии осадков обычно наблюдается дымка, при ухудшении видимости до 1 км и менее - туман. В сухую погоду видимость может ухудшаться дымом, пылью или мглою.
Явления - указаны атмосферные явления, наблюдавшиеся в срок или в последний час перед сроком; фигурными скобками обозначены явления, наблюдавшиеся между сроками (за 1-3 часа до срока); квадратными скобками обозначены град или гололедные отложения с указанием их диаметра в мм.
Облачность - указаны через наклонную черту общая и нижняя облачность в баллах и высота нижней границы облаков в метрах; квадратными скобками обозначены формы облаков: Ci - перистые, Cs - перисто-слоистые, Cc - перисто-кучевые, Ac - высококучевые, As - высокослоистые, Sc - слоисто-кучевые, Ns - слоисто-дождевые, Cu - кучевые, Cb - кучево-дождевые. Подробнее классификацию облаков см. в Атласе облаков (PDF).
T - Температура воздуха - температура, измеренная на высоте 2 м над землей.
Td - Температура точки росы - температура, при понижении до которой содержащийся в воздухе водяной пар достигнет насыщения.
f - Относительная влажность воздуха - влажноcть воздуха, измеренная на высоте 2 м над землей.
Te - Эффективная температура - температура, которую ощущает одетый по сезону человек в тени. Характеристика душности погоды. При расчете учитывается влияние влажности воздуха и скорости ветра на теплоощущения человека.
Tes - Эффективная температура на солнце - температура, которую ощущает человек, с поправкой на солнечный нагрев. Характеристика знойности погоды. Зависит от высоты солнца над горизонтом, облачности и скорости ветра. Ночью, в пасмурную погоду, а также при ветре 12 м/с и более поправка равна нулю.
P - Атмосферное давление - приведенное к уровню моря атмосферное давление.
Po - Атмосферное давление - измеренное на уровне метеостанции атмосферное давление.
Tmin - Минимальная температура - минимум температуры воздуха на высоте 2 м над землей.
Tmax - Максимальная температура - максимум температуры воздуха на высоте 2 м над землей.
R - Количество осадков - Количество выпавших осадков за период времени, мм. При наведении курсора мыши на число - период времени, за который выпало указанное количество осадков.
R24 - Количество осадков - Количество выпавших осадков за 24 часа, мм.
S - Снежный покров - Высота снежного покрова, см. При наведении курсора мыши на число - состояние снежного покрова и степень покрытия местности в баллах.